Wind_Speed
24 25 26 27 27 26 27 28 27 26 24 23 23 23 22 19 19 19 19 18 17 15 13 11 10 8 7 7 6 6 5 5 4 4 4 4 4 4 4 4 4 3 3 3 4 6 6 4 3 2 2 1 1 1 1 1 2 2 2 3 3 4 4 5 6 7 7 8 8 8 8 9 10 10 12 13 13 14 16 17 18 18 19 19 20
23 25 26 26 26 27 28 28 27 26 25 25 25 24 22 21 20 20 19 18 17 15 14 13 11 10 9 9 9 8 7 6 6 5 5 5 5 5 5 4 4 3 3 2 2 3 5 4 2 1 1 1 1 0 1 1 2 2 2 3 3 4 5 6 7 7 7 8 9 9 9 10 11 12 13 14 15 16 17 18 19 19 20 20 21
23 25 26 25 26 27 28 28 27 26 26 26 26 25 24 23 21 21 21 19 18 17 15 14 13 12 11 11 10 10 9 9 8 7 6 5 5 5 5 5 4 4 4 3 2 2 3 4 1 1 2 1 1 1 1 1 1 1 2 3 4 5 6 6 7 8 8 8 8 8 9 11 12 13 13 14 16 17 18 20 21 21 22 23 23
24 24 24 25 26 27 28 28 27 26 27 27 27 27 26 25 23 22 22 20 19 18 17 15 14 13 13 13 12 12 11 10 9 8 7 5 5 5 5 6 5 5 6 5 4 4 3 4 3 1 3 3 2 2 1 1 1 1 2 3 4 4 5 6 7 7 8 9 9 8 8 10 11 13 14 15 17 19 20 22 24 25 26 27 27
24 24 24 25 25 26 27 27 27 27 27 28 28 27 27 26 24 24 23 21 20 19 18 17 16 15 15 15 14 14 13 11 10 9 8 6 5 5 6 7 7 7 7 7 6 6 6 5 4 2 4 4 4 3 2 1 1 1 1 2 3 4 4 5 6 6 7 8 10 11 12 12 13 15 18 18 20 22 23 25 27 28 30 31 32
25 25 24 25 25 26 27 27 27 27 28 28 28 28 27 26 25 25 24 23 22 20 19 19 18 17 17 17 16 15 13 12 11 10 9 8 7 7 8 9 9 9 9 8 8 7 7 7 4 3 5 6 5 4 3 2 1 1 1 2 3 3 4 5 5 5 6 8 10 13 16 18 19 20 22 24 23 24 25 27 28 31 33 33 34
27 26 25 25 26 26 26 26 27 28 28 28 29 28 27 27 26 25 25 24 23 22 21 21 20 19 19 18 16 15 13 12 11 11 10 10 10 10 10 11 11 11 11 10 9 8 9 8 6 5 6 7 7 5 4 3 2 2 2 1 2 3 4 5 6 7 8 9 10 12 15 19 21 21 24 27 27 28 30 30 29 30 33 35 36
29 27 27 26 26 26 26 27 28 29 29 29 29 29 28 27 27 26 26 25 24 23 23 22 21 20 19 18 16 14 12 11 12 12 13 13 13 12 12 12 13 13 12 11 10 10 10 9 7 6 7 8 7 6 4 4 4 4 4 3 3 4 6 8 9 10 10 11 12 13 15 18 21 23 25 28 30 31 34 35 33 32 35 36 36
30 28 27 27 26 27 28 29 29 30 30 30 29 29 28 28 28 27 26 26 25 25 24 23 21 20 19 17 15 14 12 12 13 15 15 15 15 14 13 13 13 14 13 12 11 11 11 9 8 8 8 8 8 7 5 4 4 4 5 4 4 6 8 10 12 13 14 15 15 17 18 19 21 24 26 29 32 33 35 37 36 35 37 38 37
30 29 28 28 28 29 30 30 30 30 30 30 30 30 30 29 28 27 27 27 27 26 24 22 20 19 18 17 16 15 14 15 16 17 16 16 16 15 15 14 14 14 13 13 13 12 11 9 9 9 9 9 8 7 5 4 4 5 6 6 7 9 11 13 15 17 18 18 19 21 21 21 23 26 27 29 32 34 36 38 38 38 40 40 37
29 28 28 29 30 31 31 31 31 31 30 30 31 31 31 30 29 28 28 28 27 25 23 21 20 19 18 18 17 16 16 17 18 17 16 16 16 16 16 15 15 14 14 14 14 12 10 9 9 9 9 8 7 6 5 5 6 7 7 8 10 12 14 17 18 20 22 22 22 23 25 25 25 28 30 31 34 35 37 40 42 43 43 41 40
28 28 29 30 30 31 31 31 31 30 30 31 31 32 31 31 30 29 29 28 27 25 22 21 20 19 19 18 18 17 17 19 18 17 16 16 16 16 16 16 15 15 14 14 13 12 10 10 9 9 8 7 6 6 6 7 8 10 11 12 14 15 18 20 21 22 24 24 24 25 27 29 29 31 34 36 37 38 41 44 45 46 47 48 49
28 29 29 29 30 30 30 30 30 30 30 30 31 31 30 30 29 29 29 28 26 24 22 21 20 20 19 19 18 18 19 19 18 16 16 16 16 16 16 16 16 15 14 13 12 11 11 11 9 8 8 7 6 7 8 9 11 13 14 16 17 18 20 22 23 23 24 26 25 25 28 31 30 31 35 40 42 44 47 48 49 48 50 53 54
29 29 29 29 29 29 29 29 29 29 29 30 30 29 29 29 28 28 28 26 25 23 22 22 21 20 19 19 19 19 20 19 17 16 16 16 16 16 16 15 15 14 12 12 12 12 12 11 9 8 8 7 8 9 10 12 14 16 17 18 19 21 23 25 26 26 26 28 27 26 28 32 32 32 36 44 51 54 54 52 49 50 51 53 53
28 29 29 29 29 29 28 28 28 28 28 28 28 27 27 27 27 27 26 25 24 23 22 21 21 20 20 20 20 20 20 20 18 17 17 17 17 16 15 15 14 13 12 13 13 12 11 10 9 9 8 8 10 11 13 15 16 17 19 21 22 24 26 28 29 29 29 29 30 30 31 34 36 39 43 49 55 59 60 57 52 51 53 53 53
28 28 29 29 28 28 27 27 26 26 26 26 26 26 26 26 26 26 25 24 23 22 21 20 21 21 21 21 20 20 21 20 19 18 18 18 16 16 15 15 14 13 13 14 13 12 11 10 9 9 9 10 12 14 16 18 18 19 21 23 25 27 28 30 31 31 31 32 33 34 35 37 42 46 48 50 52 55 60 60 56 55 57 58 57
27 27 26 26 26 26 25 25 25 25 24 24 23 23 23 24 24 24 23 23 22 22 21 22 22 22 22 22 22 22 23 22 20 20 20 18 16 16 16 15 14 14 15 15 14 13 12 11 11 10 11 13 15 18 19 20 21 22 24 25 27 28 29 31 31 31 32 33 34 36 39 42 45 47 46 47 49 52 56 56 55 57 59 60 60
24 23 23 22 22 23 22 22 22 22 21 21 20 20 21 21 22 22 22 22 22 23 24 24 24 23 23 23 23 24 24 24 21 20 20 18 17 17 16 15 15 15 16 16 15 14 13 12 12 12 13 15 18 20 22 24 24 25 26 26 27 28 30 33 33 32 33 34 36 39 41 41 42 42 42 45 48 51 53 53 53 55 56 56 57
24 23 23 22 22 21 20 19 19 18 18 18 18 18 18 19 20 20 21 22 23 24 25 25 25 24 24 25 25 25 26 25 22 21 20 19 17 17 17 16 16 17 17 17 16 15 14 13 14 15 16 17 20 23 25 27 28 28 29 29 28 29 32 36 37 37 36 37 38 39 39 38 39 41 43 45 47 49 52 54 55 56 56 56 56
27 26 26 25 23 22 21 20 18 18 18 18 18 18 18 18 19 19 20 21 23 24 25 25 25 25 25 26 27 27 27 26 24 22 22 20 19 19 19 18 19 19 20 19 18 16 15 15 16 17 18 20 22 25 28 29 30 30 31 31 31 32 34 37 41 43 43 41 40 39 39 40 42 45 46 47 48 50 53 56 57 57 57 57 56
31 29 28 26 25 24 23 22 21 20 21 21 20 19 19 19 19 20 20 22 23 24 25 25 25 26 26 27 27 27 28 27 25 24 23 22 21 21 20 20 21 21 21 20 18 17 17 17 18 19 21 23 25 28 30 31 32 32 32 33 33 34 36 38 41 45 47 45 42 42 43 44 45 48 49 49 50 52 55 56 56 57 57 56 55
32 31 29 27 26 25 25 25 24 24 24 23 22 21 21 20 20 20 21 22 23 23 25 25 26 26 26 26 27 28 28 27 26 24 24 23 23 22 21 22 23 22 21 20 19 18 18 19 20 21 24 26 28 30 31 32 32 33 34 35 36 37 38 40 42 44 46 46 45 45 46 48 49 50 51 52 52 53 55 54 53 54 55 55 53
35 33 31 29 27 26 26 26 27 26 26 25 24 24 23 22 21 21 20 21 22 23 24 24 25 26 26 26 26 28 28 28 26 25 24 24 23 22 22 24 24 23 22 21 20 20 20 21 22 24 26 28 30 32 32 33 34 35 36 37 38 39 40 42 43 44 45 46 47 48 50 52 53 54 54 55 55 56 55 51 49 51 53 52 51
38 36 33 31 29 29 28 28 28 28 29 28 27 26 26 24 23 22 21 21 22 22 23 24 24 25 26 26 26 27 28 28 28 26 25 24 24 23 24 26 26 25 24 23 22 22 22 23 24 26 28 30 31 32 33 34 35 36 37 39 40 41 42 43 44 45 46 47 48 50 52 55 56 57 57 57 58 59 57 51 49 50 51 50 49
41 39 37 35 33 32 31 31 31 31 31 31 30 28 28 26 25 24 23 22 22 22 22 23 23 23 25 26 26 27 29 29 28 27 26 25 25 25 26 28 28 26 25 24 24 24 24 25 26 28 30 31 32 33 34 36 37 38 39 41 42 42 43 44 45 46 47 48 50 52 54 56 58 59 59 59 59 60 57 51 48 48 49 49 48
43 41 40 39 38 37 36 35 35 34 34 33 33 31 30 28 27 26 25 24 24 23 22 22 21 21 23 26 27 28 29 29 29 28 27 27 27 28 29 29 29 28 27 26 26 26 26 27 29 31 32 33 34 34 35 37 38 39 40 41 42 43 44 46 47 48 48 50 52 54 56 58 59 61 61 60 60 60 56 51 47 46 47 47 46
45 45 44 44 43 41 40 40 38 36 35 35 35 34 32 30 29 29 27 26 26 24 22 22 21 20 21 24 27 28 29 29 30 30 29 29 30 30 30 30 30 29 29 28 28 28 29 30 32 33 34 34 34 36 37 38 40 41 41 42 43 45 46 47 48 49 50 52 53 55 57 59 60 62 62 62 61 60 57 51 47 45 45 45 44
46 46 47 48 47 45 43 42 41 38 37 36 35 35 34 32 32 31 31 31 30 28 26 24 23 21 21 23 26 29 29 30 31 31 31 31 31 31 31 31 30 30 30 30 30 31 32 33 34 35 35 35 36 37 39 40 41 41 43 44 45 47 48 49 49 51 52 54 56 57 59 60 61 62 63 63 62 61 57 51 48 46 45 45 45
46 45 45 46 47 46 45 44 43 42 40 38 37 35 34 34 34 34 35 35 35 34 32 28 26 25 24 23 25 27 28 29 31 32 32 32 32 32 32 32 32 33 33 34 34 35 35 36 36 36 37 38 39 39 40 40 42 43 45 46 47 48 50 50 51 52 54 55 58 59 60 61 62 62 63 63 62 61 58 53 49 47 46 46 46
46 45 45 46 47 46 46 45 45 45 43 42 40 38 37 36 36 36 37 37 37 36 35 33 31 30 28 25 25 25 27 29 32 33 33 33 33 33 34 35 36 36 37 37 37 37 37 37 37 38 38 39 40 41 41 42 44 45 47 48 49 50 51 52 53 54 55 57 59 60 61 62 62 63 63 63 62 61 59 54 50 47 46 46 46
49 49 48 48 48 48 48 48 48 48 47 46 44 43 41 40 39 39 39 38 38 38 37 36 35 33 31 29 28 27 29 31 33 34 35 35 35 35 36 37 38 39 39 39 39 38 38 38 38 39 40 41 42 42 43 44 45 47 49 51 51 52 53 53 54 55 57 59 60 61 62 63 63 63 63 63 62 60 59 56 52 48 46 46 47
49 50 50 50 50 51 51 51 50 50 50 49 48 48 47 45 44 43 42 42 41 41 40 39 38 36 34 32 31 30 31 32 33 34 36 37 37 37 38 39 39 40 40 40 40 40 39 39 40 41 42 43 43 44 45 46 47 49 50 52 53 55 55 55 55 56 58 60 61 61 62 64 64 64 64 64 62 60 58 57 53 49 47 47 48
46 47 48 49 50 50 50 50 50 50 50 50 49 49 49 49 48 46 45 44 43 43 42 42 41 40 38 36 34 34 33 33 33 34 35 37 38 39 40 41 41 42 42 42 41 41 41 42 43 44 44 45 45 46 47 48 48 50 52 54 56 57 56 55 56 58 60 61 62 63 64 64 65 65 65 64 63 61 59 57 55 51 48 48 49
41 42 44 45 46 47 48 47 47 47 47 47 47 48 48 47 47 45 44 44 43 43 42 42 42 42 42 40 39 38 37 36 35 36 36 37 38 40 41 42 43 43 43 43 43 43 44 44 45 46 46 47 47 47 48 49 50 52 55 57 58 57 56 55 57 59 61 62 63 64 64 65 65 65 65 65 64 62 60 57 55 51 47 46 47
37 37 38 40 41 42 42 42 42 42 42 42 43 43 43 43 42 42 41 41 40 40 41 41 41 42 42 43 43 42 41 39 38 38 39 40 41 42 42 43 44 44 45 45 45 46 46 47 47 47 48 48 49 50 50 50 52 55 57 59 59 57 56 57 59 61 62 63 64 65 65 65 66 66 66 65 65 64 61 58 56 53 49 46 45
34 34 35 36 36 36 37 37 36 36 36 36 37 37 37 37 37 37 37 36 36 37 38 38 39 40 40 41 42 43 42 41 41 41 41 42 44 46 46 46 45 45 46 46 47 48 48 47 48 49 49 50 51 51 50 51 54 57 59 59 58 57 57 59 60 62 63 64 65 65 66 66 66 66 67 66 66 65 62 58 56 56 54 51 48
33 33 33 34 34 34 34 34 34 34 34 34 34 34 34 34 34 34 35 35 35 35 35 35 36 37 38 40 40 40 40 41 43 44 45 46 47 50 50 49 46 46 47 48 50 52 51 49 49 50 51 51 50 50 50 53 56 59 59 58 57 57 58 60 61 62 64 65 66 66 66 66 66 67 68 68 67 65 61 58 57 57 57 56 55
34 33 34 34 35 35 35 34 34 34 33 33 33 33 33 33 33 34 34 35 35 35 35 35 35 36 37 38 38 37 36 38 42 46 48 49 50 52 53 51 49 49 50 50 51 52 51 50 49 51 52 52 52 53 55 57 58 59 58 57 58 59 60 61 62 63 65 66 67 67 67 67 67 68 69 69 68 64 60 58 57 58 59 59 58
36 36 36 36 36 36 36 36 36 35 34 34 34 33 34 34 34 34 35 36 36 35 35 36 36 36 36 36 37 37 37 38 42 47 49 49 51 52 54 54 54 54 53 52 50 49 51 51 52 53 54 55 56 57 58 58 58 58 57 58 59 60 61 62 63 65 66 67 67 67 67 67 68 69 70 70 67 63 59 58 58 59 60 60 59
37 37 37 38 38 38 38 38 38 37 36 36 35 35 35 35 35 37 38 38 37 37 38 38 37 36 36 36 37 38 40 42 45 47 47 46 47 49 52 53 53 53 53 53 54 55 56 56 56 56 57 58 58 58 58 58 57 57 58 59 60 61 62 63 64 66 67 67 67 67 67 68 69 70 71 69 65 61 58 58 59 60 60 60 59
37 38 38 39 39 40 39 39 39 39 38 38 38 37 37 37 38 39 39 37 35 36 37 39 39 37 37 38 40 41 43 45 47 47 44 42 43 45 46 48 48 48 49 50 53 55 56 56 57 58 58 57 57 57 57 57 57 58 59 60 61 62 62 63 65 66 67 67 67 67 67 68 70 71 69 66 62 59 58 58 59 60 60 60 59
38 39 39 39 40 40 40 40 40 39 39 39 39 39 39 39 41 42 41 38 35 34 33 34 36 38 40 42 45 46 46 46 48 48 46 44 44 44 45 47 48 49 50 51 52 54 55 55 56 56 56 56 57 57 57 58 59 60 60 61 62 62 63 64 66 67 67 67 66 66 67 68 70 69 67 63 61 59 59 60 60 61 61 60 58
40 40 40 41 41 41 41 41 41 41 41 40 40 41 41 41 43 44 43 41 40 39 39 40 43 45 47 48 47 45 43 43 44 45 46 47 47 47 47 47 49 50 52 53 54 54 54 55 55 56 56 57 58 58 59 60 60 61 61 62 62 63 64 66 66 67 66 66 66 66 67 69 69 68 64 62 60 60 60 61 61 61 61 60 57
41 41 41 41 41 41 42 43 43 43 43 43 43 43 43 44 44 46 46 45 45 45 46 46 47 48 49 49 47 45 45 45 46 46 47 48 49 49 49 49 50 51 52 53 54 55 55 56 56 57 58 59 59 60 61 61 61 61 62 62 63 65 66 67 67 66 66 66 66 67 68 69 68 66 63 61 60 61 61 61 61 61 60 59 57
40 42 41 41 41 42 42 43 44 44 44 45 44 44 44 45 45 47 48 48 48 49 49 48 45 44 44 45 45 45 46 47 49 50 50 51 51 51 51 52 52 53 54 55 55 56 57 57 58 59 60 60 61 61 61 61 62 62 63 64 65 67 67 67 66 66 66 66 67 68 69 69 68 64 62 61 61 62 62 61 60 59 58 56 55
40 43 42 41 41 42 42 43 44 44 45 45 45 44 45 45 46 47 49 51 52 52 53 52 49 46 45 46 46 46 47 48 50 52 52 53 53 53 53 54 55 55 56 57 57 58 59 59 60 61 61 62 62 62 62 62 63 64 65 66 67 67 67 66 66 66 67 68 69 70 70 69 67 63 61 62 63 63 62 60 59 57 55 54 52
40 43 43 41 41 41 41 41 42 43 44 44 44 45 46 47 48 49 50 51 52 53 55 55 54 52 51 52 53 53 53 54 55 55 54 54 55 55 56 57 57 57 58 59 59 60 60 61 61 62 62 62 62 62 63 64 65 65 66 67 67 67 66 66 67 67 68 69 70 70 69 68 65 63 61 63 64 63 61 59 58 56 54 52 51
41 43 43 41 41 41 41 39 39 40 43 43 44 45 46 48 51 52 53 52 51 51 52 54 55 54 53 54 56 57 57 56 56 56 56 56 57 57 58 59 59 60 60 61 61 61 62 62 62 63 63 63 64 64 65 65 66 66 67 67 66 66 67 67 68 68 69 69 70 70 69 67 64 62 62 63 63 62 59 58 56 55 53 51 50
40 42 41 41 42 43 43 41 38 39 42 45 46 47 48 49 51 53 54 53 52 52 52 53 54 55 55 55 56 57 58 58 57 58 58 58 59 61 62 62 62 62 62 63 63 63 64 64 64 64 65 65 66 66 66 66 66 67 66 66 67 67 68 69 69 70 70 70 70 69 68 66 64 64 64 64 63 60 58 56 55 54 52 50 49
38 39 40 41 42 44 45 45 44 45 47 49 50 51 52 52 53 55 56 57 57 57 57 57 59 59 60 60 61 61 62 63 63 63 64 65 65 66 65 65 64 64 65 65 66 66 66 66 66 66 67 67 67 66 66 66 67 67 67 67 68 69 70 70 71 72 71 71 70 69 67 66 66 66 65 64 62 59 57 55 54 52 51 49 49
38 39 40 42 43 45 47 48 50 52 54 54 54 54 55 56 57 58 59 60 60 61 61 62 63 63 64 65 66 67 67 68 69 69 69 69 69 68 67 66 66 66 67 67 67 67 67 67 67 66 66 66 66 67 67 67 67 68 68 69 70 71 72 73 73 73 72 71 70 68 67 67 67 66 65 62 59 58 56 53 52 50 49 49 48
Wind_Direction
208 205 202 198 195 193 192 195 197 198 195 192 190 193 194 194 193 190 186 181 177 176 180 189 200 212 221 232 239 241 244 247 256 271 285 297 309 316 323 332 341 354 12 30 37 36 41 58 74 77 102 132 125 89 56 56 66 66 66 69 72 69 63 55 49 41 34 30 23 18 12 7 3 359 353 350 348 346 343 341 339 338 338 338 338
210 209 206 201 197 194 194 196 197 197 196 192 191 193 193 193 193 190 187 185 183 187 194 201 209 219 231 242 250 255 258 258 259 265 272 283 291 298 304 311 316 314 316 329 4 23 27 39 82 110 102 111 120 96 69 62 56 46 33 32 38 40 39 37 34 28 22 17 12 7 3 358 355 353 348 344 343 342 339 336 334 334 335 336 335
210 210 208 204 199 196 196 197 198 198 196 194 192 192 193 194 192 190 190 189 190 196 204 208 215 225 236 245 253 258 262 263 263 264 268 275 280 287 290 292 295 287 282 284 283 311 353 5 23 173 179 164 160 144 112 101 81 56 28 23 24 25 25 24 22 17 10 8 5 0 356 351 348 348 345 341 339 339 336 331 330 331 332 332 332
208 208 208 205 201 198 197 199 199 198 197 195 194 193 194 194 192 191 192 192 196 203 209 214 221 229 238 245 250 255 259 263 266 266 267 268 269 274 277 276 276 271 270 272 268 271 296 322 329 221 204 204 199 185 150 128 106 43 24 30 30 28 27 23 20 12 1 357 354 352 350 345 342 339 335 336 336 335 332 327 326 328 329 328 328
204 204 205 204 202 199 198 200 200 200 199 197 195 195 195 194 193 193 193 195 201 208 214 221 227 233 238 243 248 252 257 261 265 269 271 266 258 256 258 261 260 258 260 262 261 262 268 287 303 246 217 220 217 206 195 181 182 329 2 37 41 32 26 21 19 13 1 349 340 339 339 339 341 335 328 330 332 330 327 323 322 326 326 325 324
202 201 202 202 200 199 198 200 201 201 201 199 197 197 196 195 194 195 196 199 205 212 218 225 230 234 238 242 247 251 255 258 260 266 272 271 261 248 242 247 251 250 251 252 255 257 260 272 281 240 222 228 228 220 213 209 212 255 331 44 51 29 14 10 10 7 358 346 337 334 332 332 336 332 324 325 327 324 320 317 319 322 321 319 320
202 200 201 200 199 198 197 199 201 202 202 200 198 197 196 196 196 197 199 202 208 214 221 226 229 234 239 244 247 250 254 258 261 264 268 268 264 256 246 243 245 247 248 248 249 251 255 264 269 243 226 229 233 231 229 237 251 269 295 359 31 14 357 349 351 351 346 341 336 330 327 326 327 325 320 319 322 320 316 315 318 318 315 315 318
202 200 199 198 197 196 197 199 201 202 202 201 198 196 197 198 198 200 202 206 211 217 222 227 231 235 240 243 245 248 252 255 259 262 263 264 264 261 255 249 247 246 247 246 245 245 249 255 255 240 228 227 233 237 239 248 260 273 287 316 344 348 342 336 335 332 328 329 325 320 322 324 321 318 316 315 316 315 313 315 319 317 313 314 317
202 200 198 197 197 197 197 198 200 201 201 200 197 196 197 199 200 203 206 209 214 219 224 229 232 235 238 240 242 244 245 248 252 256 260 265 265 264 260 255 250 248 246 244 242 242 244 243 235 226 222 224 230 237 242 248 259 272 282 302 328 333 331 326 321 316 316 321 319 316 319 322 317 313 313 313 312 312 312 314 317 317 313 313 314
201 198 197 197 197 198 197 198 199 200 200 199 197 197 199 201 203 206 209 213 217 222 226 230 232 233 234 236 237 238 239 242 247 252 258 263 264 263 260 255 251 247 244 240 239 240 238 229 218 212 211 215 222 229 236 244 255 264 276 297 317 323 322 318 315 313 314 318 318 317 319 319 313 310 310 309 308 311 313 313 315 314 311 311 313
201 198 197 198 199 198 198 198 199 199 199 199 199 200 201 203 205 209 212 216 221 225 228 229 229 231 233 235 236 236 236 239 244 250 256 261 261 259 256 253 249 244 239 236 237 236 228 216 209 204 204 210 216 221 233 250 267 279 291 306 317 321 319 315 312 312 314 317 319 319 318 316 313 311 311 310 308 309 311 312 313 311 307 310 315
200 200 200 200 199 199 199 200 200 200 201 202 202 203 204 205 208 212 215 219 223 225 226 227 228 231 235 237 238 236 236 238 242 247 253 257 257 256 254 250 244 239 235 233 233 228 219 214 212 208 210 216 222 237 257 277 292 301 308 314 318 319 315 311 311 312 315 317 319 319 318 317 318 317 314 311 309 310 310 309 307 307 307 310 313
200 200 201 200 200 200 200 201 202 203 204 205 206 207 208 210 212 216 219 221 223 223 223 223 227 231 234 238 239 239 240 241 243 246 252 255 255 255 253 248 241 237 233 228 224 219 215 216 216 216 222 231 245 265 282 296 302 307 313 315 315 313 310 308 309 312 314 314 316 320 319 317 320 320 315 312 312 311 307 303 304 308 311 310 309
199 200 200 200 200 201 202 202 204 206 207 209 211 212 213 215 217 219 221 223 222 221 221 222 225 229 233 236 239 241 243 245 245 248 252 254 254 254 251 246 240 235 228 223 221 218 216 217 219 226 238 253 269 283 293 300 303 307 310 309 310 309 307 307 309 313 314 314 318 323 322 319 320 322 319 318 317 313 308 306 310 313 310 307 307
198 199 199 200 201 202 203 205 207 209 211 213 214 215 217 219 221 222 223 223 221 220 221 224 227 230 233 236 239 243 246 248 248 250 252 252 253 252 248 243 237 229 224 223 223 220 218 219 226 239 255 269 279 286 292 294 298 301 302 304 307 308 307 308 311 313 314 316 321 324 322 320 321 323 324 322 320 317 313 313 316 313 308 307 308
195 197 199 200 201 202 204 206 208 210 212 214 216 217 219 220 221 222 221 221 221 222 224 226 229 232 235 238 242 244 247 247 248 250 252 252 252 248 242 236 230 225 226 229 227 223 222 226 236 249 262 274 280 284 288 290 294 298 300 304 307 307 308 308 309 310 313 317 320 319 319 321 321 323 323 320 318 317 314 315 318 315 311 310 309
192 195 197 198 200 201 203 204 207 209 210 212 214 215 216 216 217 218 218 219 220 222 225 228 230 233 236 239 243 245 246 246 245 247 251 251 248 243 237 232 228 228 232 234 230 228 230 236 246 257 267 276 281 285 288 292 296 299 300 302 304 304 304 302 303 308 311 313 316 317 320 321 319 318 318 315 315 315 312 313 315 312 309 308 307
187 189 189 190 191 194 196 199 202 206 207 208 209 211 213 215 218 219 219 221 223 225 227 229 231 233 236 239 243 246 248 247 245 246 250 249 244 238 234 232 231 232 234 234 232 233 238 245 253 262 270 278 284 289 291 293 294 295 296 298 300 301 301 300 302 307 309 311 314 316 316 315 311 311 313 314 315 314 311 311 312 309 307 305 305
183 184 184 185 185 185 188 191 195 198 199 200 203 207 211 215 219 221 222 223 226 229 231 233 235 236 238 240 242 245 248 249 247 246 248 246 240 236 235 234 234 233 234 235 235 237 242 250 258 264 271 279 284 286 288 289 290 293 296 299 301 302 302 303 306 306 305 308 311 309 308 309 311 314 316 316 315 313 312 314 314 312 309 308 307
185 188 188 187 186 186 188 191 194 197 198 200 202 206 210 215 219 222 225 227 230 233 235 237 239 239 240 241 242 244 246 248 247 245 245 243 238 236 238 238 237 235 236 238 238 240 245 252 260 267 273 277 279 280 282 286 290 294 297 300 302 303 303 305 306 305 306 308 309 308 310 314 316 317 317 317 316 317 317 318 317 314 311 311 311
190 192 192 190 190 191 193 195 198 200 202 205 207 209 213 218 222 225 228 231 234 236 238 239 241 242 242 242 243 244 245 246 245 244 243 242 239 239 242 242 240 239 240 240 241 243 248 255 262 268 272 275 277 279 283 287 291 295 298 300 302 303 303 304 304 305 307 310 311 313 315 316 316 317 317 319 320 321 322 320 317 314 312 312 312
194 195 196 196 197 198 199 201 202 204 206 209 211 213 216 220 225 229 232 235 237 239 241 242 243 243 244 244 244 245 245 244 243 242 242 241 240 241 243 242 240 239 240 240 242 245 250 256 262 268 271 275 278 281 285 289 294 297 299 300 301 302 303 303 303 304 307 310 313 316 317 317 317 318 319 321 322 323 323 320 316 314 314 314 313
199 200 201 202 205 207 208 209 209 209 210 212 215 218 220 222 228 232 236 240 242 244 245 246 246 245 245 244 245 246 246 244 242 240 240 240 240 241 242 240 238 238 239 239 242 246 251 257 262 267 272 276 279 283 287 292 294 295 297 298 300 301 301 303 304 305 308 312 315 317 317 317 318 320 322 323 324 325 324 320 317 316 316 315 314
203 204 206 208 212 215 217 218 218 216 216 216 218 221 223 225 228 233 237 242 246 249 251 251 251 248 246 244 244 245 245 244 242 241 240 240 240 241 240 239 238 239 240 242 245 249 254 259 264 269 273 277 281 285 288 290 291 293 296 298 298 300 301 303 305 306 309 312 315 316 316 317 319 321 324 325 326 327 326 323 320 318 317 316 314
206 206 207 210 214 217 220 223 223 221 220 221 222 223 226 227 229 234 238 242 246 250 253 255 255 252 246 243 243 243 243 243 243 242 241 241 243 243 241 240 241 243 245 247 250 254 258 263 268 272 275 278 281 284 285 287 290 293 295 296 297 300 302 304 304 306 309 312 314 315 316 318 320 322 324 327 328 328 327 324 320 318 317 316 314
209 209 209 211 214 217 220 222 223 223 224 226 226 227 228 228 229 233 239 242 244 247 251 255 258 256 249 242 241 242 241 241 241 243 244 245 246 245 243 243 244 247 251 254 257 260 264 268 271 273 275 277 279 281 284 287 289 291 293 295 299 301 302 303 304 306 309 312 313 315 316 318 320 322 324 327 328 328 327 324 321 319 318 316 314
213 213 213 213 214 217 221 221 221 223 226 229 230 230 230 229 229 231 236 240 243 245 248 251 255 257 252 244 241 241 241 240 240 243 247 249 248 247 246 247 250 253 256 259 262 264 267 269 271 272 274 276 278 281 284 287 289 292 295 298 300 301 302 303 304 307 309 311 313 315 317 319 320 322 324 327 328 328 327 325 321 319 319 318 317
221 220 219 216 215 217 220 221 221 223 227 229 232 234 234 232 230 230 233 237 241 244 246 248 250 253 253 248 243 241 241 241 241 243 246 248 248 248 249 251 254 257 259 261 263 265 267 269 270 271 273 275 278 280 284 288 291 295 298 299 300 301 302 303 304 307 309 311 313 315 317 318 320 322 324 327 328 327 326 324 321 320 321 321 321
226 226 224 222 220 219 220 221 222 224 226 228 231 235 237 237 235 234 235 238 242 245 245 246 248 249 250 249 247 244 243 243 244 245 246 248 248 248 250 253 255 258 260 262 264 266 267 269 270 272 274 276 279 282 286 291 294 296 298 299 301 302 302 303 305 307 309 312 314 315 317 318 320 322 323 325 327 326 326 324 322 321 322 323 322
226 226 225 224 224 223 223 223 224 225 226 227 229 232 236 239 239 239 240 242 244 246 246 247 247 246 247 247 246 243 241 242 244 245 247 248 248 248 250 253 256 258 260 262 264 266 268 270 271 273 275 278 281 284 288 291 294 296 298 299 300 301 302 303 304 306 309 312 313 314 316 317 319 321 322 324 325 326 325 324 322 321 322 322 323
225 226 226 226 226 226 226 226 226 227 228 229 229 231 233 237 239 241 242 244 246 248 249 250 249 248 247 247 246 243 240 239 241 243 245 247 249 250 251 254 257 259 260 262 264 266 269 270 272 274 276 279 282 285 288 291 293 295 297 299 300 301 302 303 304 307 309 311 312 314 315 317 319 321 322 323 325 326 325 324 323 322 322 323 323
226 227 228 229 229 229 230 230 230 230 231 232 232 233 234 236 239 241 243 245 247 248 250 252 253 253 252 250 249 247 245 243 242 243 245 246 248 249 251 254 257 259 260 262 264 267 269 270 272 274 277 279 282 285 287 290 292 294 296 298 300 301 301 302 304 307 308 309 311 313 315 316 318 320 321 322 324 325 324 323 323 323 323 324 325
228 230 231 232 233 234 235 235 235 236 237 237 237 238 239 240 242 244 247 248 249 249 250 251 253 255 256 255 253 251 250 250 249 248 248 248 249 250 252 253 255 258 260 262 264 266 268 271 273 275 278 280 282 284 288 290 291 293 295 297 298 299 300 302 304 306 307 308 310 312 314 316 318 319 320 322 323 324 323 322 323 324 325 325 325
229 231 232 234 235 237 238 239 240 240 241 242 243 244 245 246 248 250 252 253 253 253 252 252 253 255 257 258 258 257 255 254 254 254 253 253 252 252 252 253 254 256 258 260 263 266 268 271 273 275 277 279 281 284 287 288 289 291 293 296 297 298 300 302 304 305 305 308 310 312 314 315 317 318 319 320 322 322 322 321 322 324 324 324 324
227 229 231 233 234 236 237 238 240 240 242 243 243 245 246 248 250 252 253 255 256 256 256 256 255 256 256 257 259 259 259 258 257 257 256 257 256 256 256 256 256 257 259 261 264 266 268 271 273 275 277 279 281 283 284 285 287 290 292 294 296 298 300 302 303 304 305 308 310 312 313 315 316 317 318 319 320 321 320 320 322 323 324 324 324
228 230 231 232 233 234 234 235 236 237 238 239 240 241 243 245 248 250 252 254 255 256 256 257 257 258 258 258 258 259 260 261 261 260 259 259 259 259 258 257 258 260 263 264 266 268 269 271 274 276 277 277 279 280 281 283 286 290 292 294 296 298 299 301 302 303 306 308 310 311 313 314 315 316 317 318 319 319 319 318 321 323 325 325 325
231 232 234 234 235 235 235 235 236 236 237 238 240 241 243 245 247 249 251 253 255 256 257 257 258 258 259 259 261 262 262 262 262 262 261 260 260 261 261 261 261 264 266 268 269 270 270 271 273 274 275 277 279 280 282 284 288 290 292 294 296 297 298 300 301 304 306 307 309 311 312 313 314 315 316 317 317 317 316 316 318 321 323 324 325
233 234 236 236 237 238 238 238 239 240 241 242 244 245 246 247 248 250 251 252 254 255 257 257 258 258 259 261 265 267 267 264 262 262 261 260 260 262 265 266 266 267 268 270 271 269 268 269 272 273 275 278 280 282 285 287 289 290 292 294 295 296 298 299 301 303 305 307 309 310 311 312 314 315 316 316 316 315 314 313 315 318 321 322 323
235 235 236 237 238 239 240 241 242 242 243 245 246 247 248 249 249 250 251 251 252 253 255 256 257 258 260 262 264 267 267 266 263 262 262 262 262 263 266 267 268 268 268 270 271 271 272 274 276 276 277 279 281 283 285 287 289 290 292 293 294 295 297 299 301 303 305 307 308 309 310 312 314 315 316 315 315 314 313 312 313 316 319 320 320
238 237 236 237 238 239 241 242 243 244 245 246 247 249 250 250 251 252 252 253 254 256 257 257 258 259 259 260 261 262 262 262 262 262 263 263 263 264 265 265 265 265 264 265 267 270 273 275 277 278 279 280 282 283 285 287 288 289 290 291 293 295 297 300 301 303 305 306 307 308 310 312 314 315 315 314 313 312 312 312 313 315 317 319 319
239 238 238 239 240 240 241 242 243 245 246 247 248 249 250 251 252 254 254 257 260 260 258 257 256 257 258 259 260 259 258 259 261 262 262 261 261 261 262 262 262 263 262 262 265 268 271 273 275 277 279 280 281 283 284 286 287 288 289 291 293 296 298 300 301 302 304 305 306 308 310 312 314 314 313 312 311 311 310 311 313 315 317 318 319
240 239 239 240 241 242 243 244 244 245 246 246 247 248 249 250 252 255 256 257 256 255 254 254 256 258 259 260 259 258 257 257 259 262 264 264 263 263 263 263 263 264 265 266 267 270 272 273 275 277 278 280 282 283 284 285 286 287 289 292 294 296 298 299 300 301 302 303 305 308 310 312 312 312 312 311 310 309 310 310 312 314 316 316 317
242 241 240 240 242 243 245 246 246 247 247 247 247 247 248 249 251 255 257 257 255 254 255 257 258 259 259 258 257 258 258 258 259 262 266 268 268 268 267 267 267 267 267 269 270 272 274 275 277 278 279 281 282 283 284 285 286 288 291 293 295 296 297 298 299 300 301 303 305 307 309 310 311 310 309 309 309 309 309 310 311 312 314 314 314
242 241 241 241 242 244 245 247 247 248 248 248 248 248 249 250 251 254 256 258 259 259 259 259 259 259 257 256 255 255 255 257 259 262 265 267 268 270 270 270 270 270 270 271 272 274 275 276 277 278 279 280 281 283 284 286 288 290 292 293 294 295 296 297 298 299 301 303 305 307 308 308 308 307 307 307 308 308 309 309 310 311 312 312 312
242 240 241 242 243 244 246 248 248 249 250 250 250 251 252 253 253 254 256 258 260 260 259 259 259 259 258 258 259 259 259 260 262 264 265 266 268 269 270 270 270 271 272 273 274 275 275 276 277 278 279 280 282 283 285 287 289 291 292 293 294 295 296 297 298 299 301 303 305 306 306 306 306 305 305 306 307 307 308 308 309 309 310 310 310
243 239 239 241 243 244 246 248 249 250 251 252 253 254 255 255 255 255 256 257 258 260 261 261 260 258 258 259 262 265 266 266 266 266 266 266 267 268 269 270 271 271 272 273 273 274 275 276 277 278 279 281 283 285 287 288 290 291 292 293 294 295 296 297 298 300 302 303 304 304 305 304 303 302 303 305 306 306 306 306 306 307 307 307 307
242 237 237 240 243 244 245 247 249 250 252 252 253 253 254 255 256 256 256 256 257 259 262 264 264 262 261 261 263 265 266 268 268 267 267 267 267 268 269 270 270 271 271 272 273 274 275 276 278 279 281 282 284 286 287 289 290 291 292 292 293 295 296 297 299 300 301 302 303 303 303 302 301 300 301 303 305 304 304 303 303 304 304 303 303
237 234 235 240 242 243 244 246 249 253 255 255 255 255 254 255 256 258 259 260 261 261 262 264 265 264 263 263 264 265 266 267 268 268 267 268 268 269 269 270 270 271 272 273 274 275 276 277 279 281 282 284 285 286 287 288 289 290 291 292 293 295 296 297 298 299 300 300 301 301 301 300 299 298 300 301 302 302 300 300 300 301 301 301 300
234 233 236 240 243 245 245 245 248 255 260 261 261 260 259 258 258 259 260 261 261 261 262 264 265 266 266 266 266 266 267 267 268 267 267 268 269 269 270 270 271 272 273 274 275 276 278 279 280 281 282 284 285 286 287 288 289 290 291 292 293 294 296 297 297 298 298 298 299 299 299 298 297 298 299 300 300 299 298 298 298 298 298 297 297
233 234 237 241 245 249 249 248 250 255 260 263 264 264 264 263 263 263 264 264 263 263 263 263 265 266 267 267 267 267 267 267 267 267 268 268 269 270 271 272 273 274 275 275 276 277 278 279 280 281 282 283 284 286 287 288 289 290 291 292 293 294 295 295 296 296 296 296 296 297 297 296 296 297 298 298 297 296 295 295 295 295 294 294 294
234 237 243 250 256 259 260 260 260 261 263 265 265 264 264 265 265 265 265 266 266 266 265 265 265 265 266 266 266 266 266 266 266 266 267 268 269 270 272 273 274 274 275 276 276 277 278 279 280 281 283 284 286 287 288 289 289 290 291 292 292 293 294 294 294 294 294 294 294 294 294 294 295 296 296 296 294 294 293 292 292 292 291 291 291
Height
5906 5908 5908 5910 5911 5913 5915 5917 5919 5921 5923 5926 5928 5930 5932 5934 5936 5938 5940 5941 5942 5943 5943 5945 5946 5947 5948 5948 5948 5948 5948 5948 5948 5949 5949 5950 5950 5951 5951 5952 5952 5953 5953 5953 5953 5953 5953 5954 5954 5954 5954 5954 5954 5954 5954 5953 5953 5953 5953 5953 5953 5953 5953 5953 5952 5952 5952 5952 5951 5951 5951 5951 5950 5950 5949 5949 5948 5947 5947 5946 5945 5944 5943 5942 5941
5905 5906 5907 5908 5910 5912 5913 5915 5917 5919 5922 5924 5926 5929 5931 5933 5935 5937 5939 5940 5941 5942 5943 5944 5945 5946 5947 5947 5948 5948 5948 5948 5948 5948 5948 5949 5949 5950 5950 5951 5951 5952 5952 5952 5952 5953 5953 5953 5953 5953 5953 5953 5953 5953 5953 5953 5953 5952 5952 5952 5952 5952 5952 5952 5952 5952 5952 5951 5951 5951 5950 5950 5949 5949 5948 5947 5947 5946 5945 5944 5943 5942 5941 5940 5939
5902 5904 5905 5907 5908 5910 5911 5913 5915 5918 5920 5922 5925 5927 5929 5931 5933 5936 5937 5939 5940 5941 5942 5943 5943 5945 5946 5946 5947 5947 5947 5947 5947 5948 5948 5948 5949 5949 5949 5950 5950 5950 5951 5951 5951 5952 5952 5952 5952 5953 5953 5953 5953 5953 5953 5953 5952 5952 5952 5952 5952 5952 5952 5952 5952 5951 5951 5951 5950 5950 5949 5949 5948 5947 5947 5946 5945 5944 5944 5942 5941 5940 5939 5938 5937
5900 5902 5904 5905 5906 5908 5910 5912 5914 5916 5918 5921 5923 5925 5927 5929 5932 5934 5936 5937 5939 5940 5941 5942 5942 5943 5944 5945 5945 5946 5946 5946 5946 5947 5947 5948 5948 5948 5949 5949 5949 5949 5949 5950 5950 5951 5951 5951 5951 5952 5952 5952 5952 5952 5952 5952 5952 5952 5952 5952 5952 5952 5952 5951 5951 5951 5950 5950 5949 5949 5949 5948 5947 5946 5946 5945 5944 5943 5942 5941 5939 5938 5937 5936 5934
5898 5900 5902 5903 5905 5906 5908 5910 5913 5915 5917 5919 5921 5923 5925 5928 5930 5932 5934 5936 5937 5938 5939 5940 5941 5942 5943 5943 5944 5944 5945 5945 5946 5946 5947 5947 5948 5948 5948 5948 5948 5948 5948 5948 5949 5949 5949 5950 5950 5950 5950 5950 5951 5951 5951 5951 5951 5951 5951 5951 5952 5951 5951 5951 5951 5951 5950 5949 5949 5948 5947 5947 5946 5945 5944 5943 5943 5941 5940 5938 5937 5936 5935 5933 5932
5896 5898 5899 5901 5903 5905 5907 5909 5911 5913 5915 5917 5919 5921 5923 5926 5928 5930 5932 5934 5935 5937 5938 5939 5939 5940 5940 5941 5942 5942 5943 5944 5945 5945 5946 5946 5947 5947 5947 5947 5946 5946 5947 5947 5947 5948 5948 5948 5949 5949 5949 5949 5949 5949 5950 5950 5950 5951 5951 5951 5951 5951 5951 5950 5950 5950 5949 5949 5948 5947 5946 5944 5944 5943 5941 5940 5940 5939 5938 5937 5936 5934 5932 5931 5929
5894 5896 5898 5899 5901 5903 5905 5907 5909 5911 5913 5915 5917 5919 5922 5924 5926 5928 5930 5932 5933 5935 5936 5937 5938 5938 5939 5939 5940 5941 5942 5943 5943 5944 5945 5945 5945 5945 5946 5945 5945 5945 5945 5946 5946 5946 5946 5947 5947 5948 5948 5948 5948 5948 5948 5949 5949 5950 5950 5950 5950 5950 5950 5949 5949 5949 5948 5948 5947 5947 5945 5944 5943 5942 5940 5938 5937 5936 5934 5933 5934 5932 5929 5928 5927
5892 5894 5896 5898 5900 5902 5903 5905 5907 5909 5910 5913 5915 5918 5920 5922 5924 5926 5928 5930 5932 5933 5934 5935 5936 5936 5937 5938 5938 5939 5940 5941 5942 5942 5943 5943 5944 5944 5944 5944 5944 5944 5944 5944 5945 5945 5945 5945 5946 5946 5946 5946 5946 5947 5947 5947 5947 5948 5948 5949 5949 5948 5948 5947 5947 5947 5946 5946 5946 5945 5945 5944 5942 5940 5939 5936 5934 5933 5930 5928 5929 5929 5926 5925 5925
5890 5892 5894 5896 5898 5899 5901 5902 5904 5906 5908 5911 5913 5916 5918 5920 5922 5924 5926 5928 5929 5930 5932 5933 5934 5935 5936 5936 5937 5938 5939 5940 5940 5940 5941 5941 5942 5942 5942 5942 5942 5942 5942 5943 5943 5943 5944 5944 5944 5945 5945 5945 5945 5945 5946 5946 5946 5946 5947 5947 5947 5947 5947 5946 5945 5945 5945 5944 5944 5943 5943 5942 5940 5938 5937 5934 5931 5930 5928 5925 5924 5924 5922 5921 5921
5888 5890 5892 5894 5895 5896 5898 5900 5902 5904 5907 5909 5912 5914 5916 5918 5920 5922 5924 5925 5927 5928 5930 5931 5932 5933 5934 5935 5936 5937 5937 5938 5938 5938 5939 5939 5940 5940 5940 5940 5940 5940 5941 5941 5941 5942 5942 5942 5943 5943 5944 5944 5944 5944 5944 5945 5945 5945 5945 5946 5946 5946 5945 5944 5943 5943 5942 5942 5942 5941 5940 5940 5938 5936 5934 5932 5929 5926 5924 5921 5920 5919 5916 5915 5916
5886 5888 5890 5891 5893 5895 5897 5899 5901 5903 5905 5907 5909 5911 5913 5916 5918 5920 5921 5923 5924 5926 5928 5929 5930 5931 5932 5933 5934 5935 5936 5936 5936 5937 5937 5938 5938 5938 5938 5938 5938 5938 5939 5939 5940 5940 5940 5941 5941 5942 5942 5942 5943 5943 5943 5943 5943 5943 5944 5944 5944 5944 5943 5942 5941 5940 5939 5940 5939 5938 5937 5936 5935 5932 5930 5928 5925 5922 5920 5917 5914 5911 5909 5909 5910
5884 5886 5887 5889 5891 5893 5895 5897 5899 5901 5903 5905 5907 5909 5911 5914 5916 5918 5919 5921 5922 5924 5926 5927 5928 5929 5930 5931 5932 5933 5933 5934 5934 5935 5936 5936 5936 5936 5936 5936 5936 5937 5937 5937 5938 5938 5939 5939 5939 5940 5940 5941 5941 5941 5941 5941 5941 5941 5941 5942 5942 5941 5940 5939 5938 5938 5937 5937 5937 5936 5934 5932 5931 5929 5925 5922 5920 5918 5915 5911 5906 5904 5905 5904 5903
5882 5883 5885 5887 5890 5892 5894 5896 5898 5900 5902 5903 5905 5907 5910 5912 5914 5916 5917 5919 5920 5922 5924 5925 5926 5927 5928 5929 5930 5931 5931 5931 5933 5934 5934 5934 5934 5934 5934 5934 5935 5935 5936 5936 5936 5937 5937 5937 5938 5938 5938 5939 5939 5939 5939 5939 5939 5939 5939 5939 5939 5939 5937 5936 5936 5936 5935 5934 5934 5934 5932 5929 5927 5926 5922 5916 5913 5910 5907 5904 5903 5905 5905 5901 5898
5879 5881 5883 5886 5888 5890 5892 5895 5897 5898 5900 5902 5904 5906 5909 5910 5912 5913 5915 5917 5919 5920 5922 5923 5924 5925 5926 5927 5928 5928 5929 5929 5931 5931 5932 5932 5932 5932 5933 5933 5933 5934 5934 5935 5935 5935 5936 5936 5936 5936 5936 5937 5937 5937 5937 5937 5937 5937 5937 5936 5936 5936 5934 5933 5933 5934 5933 5931 5931 5931 5929 5926 5923 5923 5919 5912 5905 5901 5900 5902 5905 5905 5900 5896 5894
5876 5879 5881 5884 5886 5888 5891 5893 5895 5896 5898 5900 5902 5905 5907 5908 5910 5911 5913 5915 5917 5918 5919 5921 5922 5923 5924 5925 5926 5926 5927 5927 5928 5929 5929 5930 5930 5931 5931 5932 5932 5933 5933 5933 5933 5934 5934 5934 5934 5935 5935 5935 5935 5935 5935 5935 5935 5935 5935 5934 5933 5932 5931 5930 5930 5930 5930 5929 5928 5927 5926 5923 5919 5918 5916 5909 5902 5896 5892 5895 5900 5898 5892 5889 5889
5874 5877 5879 5882 5884 5886 5889 5891 5893 5894 5896 5899 5901 5903 5905 5906 5908 5909 5911 5913 5915 5916 5918 5919 5920 5920 5921 5922 5924 5924 5924 5925 5926 5927 5927 5928 5929 5930 5930 5930 5931 5932 5932 5932 5932 5932 5932 5933 5933 5933 5933 5933 5933 5933 5933 5933 5934 5933 5932 5932 5931 5929 5928 5927 5927 5927 5927 5926 5925 5923 5921 5920 5916 5913 5912 5907 5903 5897 5888 5886 5890 5888 5882 5880 5880
5873 5875 5878 5880 5882 5885 5887 5889 5891 5892 5895 5897 5899 5901 5903 5904 5906 5907 5909 5911 5913 5914 5916 5916 5917 5918 5919 5920 5921 5921 5922 5923 5924 5925 5925 5926 5927 5928 5928 5929 5930 5930 5930 5930 5930 5930 5931 5931 5931 5932 5932 5932 5932 5931 5931 5931 5931 5931 5930 5930 5929 5928 5927 5925 5925 5926 5925 5924 5924 5921 5918 5917 5914 5912 5910 5906 5903 5898 5891 5886 5886 5882 5877 5873 5871
5872 5875 5877 5879 5881 5883 5885 5887 5889 5891 5893 5895 5897 5899 5900 5902 5904 5905 5907 5909 5910 5912 5912 5913 5914 5916 5917 5918 5918 5919 5919 5920 5922 5922 5923 5924 5925 5925 5926 5927 5928 5928 5928 5928 5928 5929 5929 5929 5930 5930 5930 5930 5929 5929 5928 5928 5929 5928 5928 5928 5928 5927 5924 5922 5922 5924 5924 5923 5922 5920 5918 5917 5914 5912 5910 5906 5901 5897 5890 5887 5884 5879 5874 5870 5866
5872 5874 5876 5877 5879 5881 5883 5886 5888 5890 5892 5894 5895 5897 5899 5900 5902 5903 5905 5907 5908 5909 5910 5911 5912 5913 5914 5915 5916 5916 5917 5918 5919 5920 5921 5922 5923 5923 5924 5925 5926 5926 5926 5926 5926 5927 5927 5928 5928 5928 5929 5928 5928 5927 5926 5926 5926 5926 5925 5925 5925 5924 5921 5918 5917 5918 5920 5921 5920 5918 5916 5915 5911 5909 5906 5902 5899 5894 5887 5883 5879 5874 5869 5865 5862
5870 5871 5873 5875 5878 5880 5882 5884 5886 5888 5890 5892 5894 5895 5897 5898 5900 5902 5903 5904 5905 5906 5907 5908 5909 5910 5911 5912 5913 5914 5915 5915 5917 5918 5919 5920 5920 5921 5922 5923 5923 5923 5924 5924 5925 5925 5926 5926 5926 5926 5926 5926 5926 5925 5924 5924 5923 5923 5922 5921 5922 5921 5919 5916 5913 5910 5912 5916 5916 5913 5911 5909 5906 5903 5900 5897 5893 5889 5883 5877 5873 5868 5863 5859 5857
5867 5869 5871 5874 5876 5878 5880 5882 5884 5886 5888 5889 5891 5893 5895 5896 5898 5899 5901 5902 5903 5904 5905 5906 5906 5907 5908 5909 5910 5911 5912 5913 5914 5915 5916 5917 5918 5919 5920 5921 5921 5921 5921 5922 5923 5923 5924 5924 5924 5924 5924 5923 5923 5922 5922 5921 5920 5920 5919 5918 5918 5917 5916 5915 5912 5907 5905 5907 5908 5906 5905 5903 5900 5898 5895 5891 5887 5883 5878 5872 5866 5860 5856 5853 5850
5865 5868 5870 5873 5875 5876 5878 5880 5882 5884 5885 5887 5889 5891 5892 5894 5895 5897 5898 5899 5900 5901 5902 5903 5903 5904 5905 5906 5907 5908 5909 5910 5912 5913 5914 5915 5916 5917 5918 5918 5918 5919 5920 5920 5921 5921 5921 5921 5921 5921 5921 5920 5920 5919 5919 5918 5917 5916 5916 5915 5914 5913 5912 5911 5909 5906 5903 5901 5901 5900 5898 5895 5894 5892 5888 5885 5882 5878 5873 5868 5862 5856 5851 5847 5843
5864 5866 5868 5871 5873 5874 5876 5878 5879 5881 5883 5885 5887 5888 5890 5891 5893 5894 5896 5897 5898 5899 5899 5900 5901 5901 5902 5904 5905 5905 5906 5907 5909 5910 5911 5912 5913 5915 5916 5916 5916 5917 5918 5918 5919 5919 5919 5919 5919 5918 5918 5917 5917 5916 5915 5915 5914 5913 5912 5912 5911 5910 5909 5907 5905 5902 5900 5897 5895 5894 5891 5888 5886 5884 5881 5878 5876 5872 5867 5861 5856 5851 5846 5842 5838
5861 5864 5866 5868 5870 5872 5874 5875 5877 5878 5880 5882 5884 5885 5887 5889 5890 5892 5893 5894 5895 5896 5896 5897 5898 5898 5899 5900 5901 5902 5902 5903 5905 5907 5908 5909 5910 5912 5913 5913 5913 5914 5915 5916 5916 5916 5916 5916 5916 5915 5915 5914 5914 5913 5912 5912 5911 5910 5909 5908 5907 5906 5904 5903 5901 5898 5896 5893 5890 5888 5885 5882 5879 5876 5874 5871 5867 5863 5858 5854 5850 5845 5841 5837 5834
5858 5861 5863 5865 5867 5869 5870 5872 5874 5875 5877 5879 5881 5883 5884 5886 5888 5889 5890 5891 5892 5893 5893 5894 5895 5895 5896 5897 5898 5899 5899 5900 5902 5903 5905 5906 5907 5908 5909 5910 5911 5912 5913 5913 5913 5913 5913 5913 5912 5912 5912 5911 5911 5910 5910 5909 5908 5907 5906 5905 5904 5902 5900 5899 5896 5894 5891 5889 5886 5883 5880 5876 5873 5870 5867 5864 5860 5856 5852 5849 5845 5841 5836 5833 5830
5856 5858 5860 5862 5864 5865 5867 5869 5871 5872 5874 5876 5878 5879 5881 5883 5885 5886 5888 5889 5890 5890 5891 5891 5892 5893 5893 5894 5895 5895 5896 5898 5899 5900 5901 5902 5903 5904 5905 5906 5907 5908 5909 5910 5910 5909 5909 5909 5909 5908 5908 5908 5908 5907 5906 5906 5905 5904 5902 5901 5899 5898 5896 5894 5892 5889 5886 5883 5880 5878 5874 5871 5868 5865 5862 5858 5854 5850 5846 5843 5840 5836 5832 5828 5826
5852 5855 5857 5859 5860 5862 5864 5866 5867 5869 5870 5872 5874 5876 5878 5880 5881 5883 5885 5886 5886 5887 5888 5888 5889 5890 5890 5891 5891 5892 5894 5895 5896 5897 5898 5898 5899 5900 5902 5903 5904 5904 5905 5905 5905 5905 5905 5905 5905 5905 5905 5905 5905 5904 5903 5902 5901 5899 5898 5896 5895 5894 5892 5889 5887 5884 5881 5878 5875 5872 5869 5866 5863 5860 5856 5852 5848 5844 5840 5836 5833 5831 5827 5823 5821
5849 5851 5853 5855 5856 5859 5861 5862 5864 5866 5867 5869 5871 5872 5874 5876 5878 5880 5881 5882 5883 5883 5884 5885 5886 5887 5887 5888 5888 5890 5891 5892 5893 5894 5894 5895 5896 5897 5898 5899 5900 5900 5901 5901 5901 5901 5901 5901 5901 5901 5901 5901 5901 5900 5899 5897 5896 5895 5893 5892 5890 5889 5886 5884 5881 5878 5875 5872 5869 5866 5864 5861 5858 5854 5850 5847 5843 5838 5835 5831 5828 5825 5822 5818 5815
5845 5847 5849 5851 5853 5855 5857 5859 5860 5862 5864 5866 5867 5869 5870 5872 5873 5875 5876 5877 5878 5879 5881 5882 5883 5883 5884 5885 5886 5887 5888 5889 5890 5890 5891 5892 5893 5894 5895 5895 5896 5896 5897 5897 5897 5897 5897 5897 5897 5897 5897 5896 5896 5895 5894 5893 5891 5890 5889 5887 5885 5884 5881 5878 5875 5872 5869 5866 5863 5861 5858 5856 5853 5849 5846 5842 5838 5834 5830 5826 5823 5819 5816 5813 5810
5841 5843 5844 5846 5848 5851 5853 5855 5857 5859 5861 5862 5864 5865 5866 5867 5869 5870 5871 5873 5874 5875 5876 5878 5878 5879 5880 5882 5883 5884 5885 5886 5886 5887 5888 5889 5890 5891 5891 5892 5892 5893 5893 5893 5893 5893 5893 5893 5893 5893 5892 5892 5891 5890 5889 5888 5887 5885 5884 5882 5880 5878 5876 5873 5870 5867 5864 5861 5858 5856 5853 5850 5847 5844 5841 5838 5834 5829 5824 5821 5818 5814 5811 5808 5805
5837 5839 5840 5842 5844 5846 5848 5850 5853 5855 5857 5859 5860 5862 5863 5864 5864 5866 5867 5868 5869 5870 5872 5873 5874 5875 5877 5878 5879 5880 5881 5882 5882 5883 5884 5885 5886 5887 5887 5888 5888 5888 5888 5888 5888 5888 5889 5889 5888 5888 5887 5886 5886 5885 5884 5883 5882 5880 5878 5876 5874 5872 5870 5867 5864 5861 5859 5856 5853 5851 5848 5845 5842 5839 5835 5832 5828 5824 5820 5816 5813 5810 5806 5802 5799
5832 5835 5837 5839 5840 5842 5844 5846 5848 5851 5853 5855 5856 5858 5859 5860 5861 5862 5863 5864 5865 5866 5867 5868 5869 5871 5873 5874 5876 5877 5877 5878 5879 5880 5881 5881 5882 5883 5883 5883 5883 5883 5883 5883 5883 5884 5884 5884 5883 5883 5882 5882 5881 5880 5879 5878 5877 5875 5872 5870 5868 5866 5864 5862 5859 5856 5853 5850 5848 5846 5843 5841 5837 5834 5830 5826 5823 5819 5816 5812 5809 5805 5801 5797 5793
5829 5831 5833 5835 5837 5839 5841 5843 5845 5847 5849 5851 5852 5853 5854 5856 5857 5858 5859 5860 5861 5862 5863 5864 5865 5866 5868 5870 5871 5872 5873 5874 5875 5876 5877 5877 5878 5878 5878 5878 5878 5878 5878 5878 5878 5878 5878 5878 5878 5877 5877 5876 5876 5875 5874 5873 5871 5869 5867 5865 5863 5861 5859 5856 5854 5851 5847 5845 5843 5840 5838 5835 5832 5828 5824 5820 5817 5814 5811 5808 5805 5801 5797 5793 5789
5825 5827 5829 5831 5833 5835 5837 5839 5841 5843 5845 5846 5848 5849 5850 5852 5853 5854 5855 5856 5857 5858 5859 5860 5861 5862 5863 5865 5866 5867 5868 5869 5871 5871 5872 5872 5872 5872 5872 5872 5872 5872 5872 5872 5873 5873 5873 5873 5872 5872 5871 5871 5870 5869 5868 5867 5865 5863 5861 5859 5857 5855 5853 5851 5848 5845 5842 5839 5837 5835 5832 5829 5826 5823 5819 5815 5812 5809 5806 5803 5800 5797 5794 5790 5786
5822 5824 5826 5828 5830 5832 5834 5835 5837 5839 5841 5842 5844 5845 5846 5848 5849 5850 5851 5852 5853 5854 5855 5856 5857 5858 5859 5860 5860 5861 5862 5863 5864 5865 5866 5866 5866 5866 5865 5865 5865 5865 5866 5867 5867 5867 5867 5867 5867 5866 5866 5865 5864 5863 5862 5860 5859 5857 5855 5853 5851 5849 5847 5844 5841 5839 5836 5834 5831 5829 5826 5823 5820 5816 5813 5810 5806 5803 5800 5797 5794 5792 5790 5787 5784
5819 5821 5823 5824 5826 5828 5830 5832 5833 5835 5837 5838 5840 5841 5842 5844 5845 5846 5847 5848 5849 5850 5851 5852 5853 5854 5854 5855 5855 5856 5857 5857 5858 5859 5859 5859 5859 5858 5857 5857 5858 5860 5861 5862 5862 5862 5862 5862 5861 5860 5859 5858 5857 5856 5855 5854 5852 5850 5849 5847 5845 5843 5840 5838 5835 5832 5830 5828 5825 5823 5820 5817 5814 5810 5807 5804 5800 5797 5793 5790 5788 5785 5782 5780 5778
5815 5817 5819 5821 5822 5824 5826 5828 5830 5831 5833 5834 5836 5837 5838 5840 5841 5842 5842 5843 5844 5845 5846 5847 5848 5849 5849 5849 5849 5850 5851 5852 5852 5852 5852 5852 5851 5850 5849 5850 5854 5855 5856 5856 5857 5856 5856 5855 5855 5854 5853 5852 5851 5850 5849 5847 5846 5844 5842 5840 5838 5836 5833 5831 5829 5826 5824 5821 5819 5817 5814 5811 5808 5804 5801 5797 5795 5791 5788 5785 5782 5779 5776 5773 5771
5811 5813 5814 5816 5818 5820 5822 5823 5825 5827 5828 5830 5831 5833 5834 5835 5836 5837 5837 5838 5839 5840 5841 5842 5843 5843 5844 5844 5844 5844 5846 5847 5846 5844 5845 5846 5846 5845 5845 5846 5849 5850 5849 5849 5850 5851 5850 5850 5849 5848 5847 5845 5844 5843 5842 5840 5839 5837 5835 5833 5831 5829 5827 5825 5823 5820 5818 5815 5813 5811 5808 5804 5801 5798 5794 5791 5788 5785 5782 5779 5776 5774 5771 5768 5765
5806 5808 5810 5812 5813 5815 5817 5819 5820 5822 5824 5825 5826 5828 5829 5830 5831 5831 5832 5832 5833 5834 5835 5836 5837 5838 5839 5839 5839 5839 5839 5839 5837 5836 5838 5840 5841 5842 5842 5842 5843 5843 5844 5844 5844 5844 5844 5843 5842 5841 5840 5839 5837 5836 5835 5833 5832 5830 5828 5826 5824 5822 5820 5818 5816 5814 5811 5809 5807 5804 5800 5797 5794 5790 5787 5784 5781 5778 5776 5773 5771 5768 5765 5762 5759
5801 5803 5805 5807 5809 5810 5812 5814 5815 5817 5819 5820 5822 5823 5824 5825 5826 5826 5825 5826 5827 5829 5830 5831 5832 5833 5834 5834 5834 5833 5832 5830 5828 5828 5831 5834 5835 5835 5835 5835 5835 5836 5837 5837 5837 5837 5836 5835 5834 5833 5832 5831 5830 5829 5828 5826 5824 5823 5821 5819 5817 5815 5814 5811 5809 5807 5805 5802 5800 5797 5794 5790 5787 5783 5780 5777 5774 5772 5769 5767 5765 5762 5759 5756 5753
5796 5797 5800 5802 5804 5805 5807 5808 5810 5812 5814 5815 5816 5817 5818 5820 5820 5819 5819 5821 5823 5824 5825 5825 5826 5827 5828 5828 5827 5826 5825 5823 5821 5821 5824 5826 5827 5828 5828 5827 5828 5828 5829 5830 5830 5829 5828 5828 5827 5826 5825 5824 5823 5821 5820 5819 5817 5816 5814 5812 5811 5809 5807 5805 5803 5800 5798 5796 5793 5790 5787 5783 5780 5777 5774 5771 5768 5765 5763 5760 5758 5756 5753 5751 5748
5790 5792 5794 5796 5798 5800 5802 5803 5805 5807 5808 5809 5811 5811 5812 5814 5813 5812 5813 5816 5818 5818 5819 5820 5821 5821 5822 5821 5819 5818 5818 5818 5817 5816 5816 5818 5820 5821 5822 5822 5822 5822 5822 5822 5822 5821 5821 5820 5819 5818 5817 5816 5815 5814 5813 5812 5810 5809 5807 5806 5804 5802 5800 5798 5796 5794 5792 5789 5786 5783 5780 5777 5774 5771 5768 5765 5762 5759 5756 5754 5752 5749 5747 5745 5743
5784 5786 5788 5790 5792 5794 5796 5798 5799 5801 5802 5803 5805 5805 5807 5808 5808 5807 5807 5809 5811 5812 5813 5813 5814 5813 5812 5812 5812 5813 5814 5814 5813 5812 5812 5812 5813 5814 5814 5815 5815 5815 5814 5814 5813 5813 5813 5812 5811 5811 5810 5809 5808 5807 5806 5804 5803 5802 5800 5799 5797 5795 5793 5791 5789 5787 5784 5782 5779 5776 5773 5770 5768 5765 5762 5759 5756 5753 5750 5748 5745 5743 5741 5739 5737
5779 5781 5782 5784 5786 5788 5790 5792 5793 5795 5796 5797 5798 5799 5800 5801 5802 5802 5801 5802 5803 5804 5805 5805 5806 5805 5803 5803 5804 5806 5808 5808 5808 5808 5808 5807 5807 5807 5807 5807 5807 5807 5806 5806 5806 5805 5805 5804 5804 5803 5802 5802 5801 5800 5799 5797 5796 5795 5793 5791 5789 5787 5786 5784 5782 5780 5777 5774 5771 5769 5767 5764 5761 5758 5756 5753 5750 5747 5745 5742 5739 5737 5735 5733 5731
5774 5776 5777 5779 5781 5782 5784 5786 5787 5788 5789 5790 5792 5794 5795 5796 5797 5797 5796 5796 5796 5796 5797 5798 5799 5799 5799 5798 5799 5800 5801 5802 5803 5803 5802 5802 5801 5801 5800 5800 5799 5799 5799 5799 5798 5798 5798 5797 5797 5796 5795 5794 5793 5792 5791 5790 5789 5787 5785 5784 5782 5780 5778 5776 5774 5772 5770 5767 5764 5762 5760 5757 5754 5752 5749 5747 5744 5741 5738 5736 5733 5731 5728 5726 5725
5768 5770 5772 5774 5775 5777 5779 5780 5781 5782 5784 5785 5787 5788 5789 5789 5790 5790 5790 5790 5790 5789 5789 5790 5792 5794 5794 5794 5794 5794 5795 5796 5797 5796 5796 5795 5795 5794 5793 5793 5792 5792 5792 5792 5791 5791 5790 5790 5789 5789 5788 5787 5786 5785 5784 5782 5781 5779 5777 5776 5774 5772 5770 5768 5766 5764 5762 5759 5757 5754 5752 5750 5747 5745 5742 5740 5737 5735 5732 5730 5727 5725 5723 5721 5719
5762 5764 5766 5768 5770 5771 5773 5774 5776 5777 5778 5780 5781 5782 5782 5782 5782 5782 5782 5783 5784 5784 5784 5784 5785 5787 5788 5788 5788 5788 5789 5789 5789 5789 5788 5788 5787 5787 5786 5786 5785 5785 5784 5784 5784 5783 5783 5782 5782 5781 5780 5779 5778 5777 5776 5774 5773 5771 5769 5768 5766 5764 5762 5760 5757 5755 5753 5751 5749 5747 5744 5742 5740 5738 5735 5733 5730 5728 5725 5723 5721 5719 5717 5715 5713
5755 5757 5760 5762 5764 5766 5767 5769 5770 5771 5772 5773 5775 5776 5776 5776 5776 5775 5775 5777 5778 5779 5779 5778 5778 5779 5780 5781 5781 5781 5781 5781 5780 5780 5780 5779 5779 5779 5778 5778 5777 5777 5777 5776 5776 5776 5775 5775 5774 5773 5772 5771 5770 5769 5768 5766 5765 5763 5761 5759 5757 5755 5753 5751 5749 5747 5745 5743 5741 5738 5736 5734 5732 5730 5728 5725 5723 5721 5718 5716 5715 5712 5710 5708 5706
5749 5752 5754 5756 5759 5761 5762 5763 5764 5766 5766 5767 5767 5768 5769 5770 5770 5769 5770 5771 5772 5773 5773 5772 5772 5772 5772 5772 5772 5772 5772 5772 5772 5771 5771 5771 5771 5770 5770 5769 5769 5769 5769 5769 5768 5768 5767 5767 5766 5765 5764 5763 5762 5760 5759 5758 5756 5754 5752 5750 5748 5746 5744 5742 5740 5738 5736 5734 5732 5730 5727 5725 5723 5721 5719 5717 5715 5713 5711 5709 5707 5705 5703 5702 5700
5744 5746 5748 5751 5753 5755 5757 5758 5759 5760 5760 5761 5761 5761 5761 5762 5762 5762 5763 5763 5764 5766 5766 5766 5766 5765 5764 5764 5764 5764 5764 5763 5763 5762 5762 5762 5762 5762 5762 5762 5762 5761 5761 5760 5760 5759 5759 5758 5757 5756 5755 5754 5753 5752 5750 5749 5747 5745 5743 5741 5739 5737 5735 5733 5731 5729 5727 5725 5723 5721 5719 5717 5715 5713 5711 5709 5707 5705 5703 5702 5700 5698 5696 5695 5693
5738 5740 5742 5744 5746 5748 5750 5751 5752 5752 5753 5754 5754 5754 5754 5754 5754 5755 5755 5755 5755 5756 5757 5757 5757 5757 5757 5756 5756 5755 5755 5754 5754 5754 5754 5754 5754 5754 5754 5754 5754 5753 5752 5752 5751 5750 5750 5749 5748 5747 5746 5745 5744 5743 5741 5740 5737 5735 5734 5732 5730 5728 5726 5724 5722 5720 5718 5716 5714 5712 5710 5708 5706 5704 5702 5700 5699 5697 5695 5694 5693 5691 5689 5688 5687